Погода в Роговской

Россия / Краснодарский край     45°43′46″N   38°44′17″E
темп.,
°C
ветер,
м/с
пор.,
м/с
влажн.,
%
обл.,
%
осадки,
мм/ч
давл.,
гПа
погр.,
м
22 апреля, чт
чт2200:00+8зюз22905 0.0 102115
03:00+7зюз229254 0.0 102218
06:00+7з2292100 0.0 102220
09:00+12з0076100 0.0 1023373
12:00+17з115999 0.0 10231326
15:00+17з2350100 0.1 10221870
18:00+14ссз4679100 0.2 1022268
21:00+10сз22865 0.4 102427
23 апреля, пт
пт2300:00+8з22860 0.0 102322
03:00+8юз33895 0.0 102450
06:00+7юз34882 0.0 102470
09:00+13юз45668 0.0 1024540
12:00+17юз45505 0.0 10231448
15:00+18юз354698 0.0 10222053
18:00+16юз2466100 0.0 1020117
21:00+11св2277100 0.0 102047
24 апреля, сб
сб2400:00+11ююз1176100 0.0 102014
03:00+11ююз356676 0.0 1019104
06:00+9юз35775 0.0 1019103
09:00+14з577191 0.0 1019760
12:00+14з5667100 0.0 10201027
15:00+13зсз577499 0.0 1020773
18:00+12зсз46605 0.0 1020523
21:00+8з3770100 0.0 1022131
25 апреля, вс
вс2500:00+8з3469100 0.0 102285
03:00+8ссз367999 0.0 1022148
06:00+6ссв3881100 0.0 1022219
09:00+9св5563100 0.0 1022612
12:00+12св4554100 0.0 10211008
15:00+12св4457100 0.0 10201203
18:00+9св4778100 0.4 1019558
21:00+8св4985100 1.2 1019400
26 апреля, пн
пн2600:00+7св5990100 0.9 1018377
03:00+7св4896100 1.6 1017360
06:00+7ссв3697100 1.6 1017255
09:00+8ссв4596100 2.4 1017311
12:00+9ссв3492100 0.1 1018446
15:00+10св0186100 0.1 1018285
18:00+11юз118162 0.0 1018315
21:00+7зсз2287100 0.0 101819